Date,TemperatureHighF,TemperatureAvgF,TemperatureLowF,DewpointHighF,DewpointAvgF,DewpointLowF,HumidityHigh,HumidityAvg,HumidityLow,PressureMaxIn,PressureMinIn,WindSpeedMaxMPH,WindSpeedAvgMPH,GustSpeedMaxMPH,PrecipitationSumIn
2013-1-1,26.0,19.3,10.0,17.0,9.5,4.0,80,67,41,30.24,30.12,10,4,14,0.00
2013-1-2,27.0,16.5,7.0,15.0,9.0,4.0,86,73,47,30.24,30.15,9,5,16,0.00
2013-1-3,32.0,25.5,18.0,26.0,19.5,13.0,88,78,64,30.30,30.13,10,5,18,0.00
2013-1-4,37.0,23.4,12.0,24.0,17.6,9.0,90,79,53,30.29,30.19,12,6,22,0.00
2013-1-5,36.0,29.8,20.0,32.0,26.6,17.0,96,88,70,30.28,30.00,11,6,21,0.01
2013-1-6,34.0,26.7,17.0,32.0,23.7,16.0,95,88,77,30.37,29.95,10,5,21,0.02
2013-1-7,37.0,25.9,17.0,27.0,21.7,15.0,95,84,65,30.38,30.15,15,7,24,0.00
2013-1-8,41.0,33.3,26.0,33.0,28.1,23.0,89,81,69,30.21,30.09,11,6,19,0.00
2013-1-9,50.0,38.6,26.0,35.0,27.9,19.0,88,68,34,30.53,30.07,14,6,24,0.00
2013-1-10,44.0,34.3,25.0,41.0,28.4,21.0,98,80,50,30.53,29.93,12,5,23,0.36
2013-1-11,53.0,49.4,42.0,52.0,48.0,41.0,98,95,90,29.93,29.72,14,8,21,0.54
2013-1-12,52.0,41.0,32.0,48.0,37.1,29.0,93,86,75,30.01,29.78,12,6,21,0.06
2013-1-13,32.0,24.4,14.0,30.0,22.4,9.0,96,92,84,30.27,29.90,8,5,15,0.06
2013-1-14,25.0,17.2,11.0,17.0,12.6,8.0,94,82,67,30.47,30.27,6,2,11,0.00
2013-1-15,31.0,21.1,13.0,22.0,16.3,11.0,94,82,64,30.45,30.14,3,1,7,0.00
2013-1-16,36.0,28.0,16.0,28.0,22.5,14.0,93,80,66,30.15,29.89,15,6,23,0.00
2013-1-17,32.0,26.4,17.0,29.0,17.5,11.0,91,71,45,30.43,30.07,11,4,18,0.00
2013-1-18,39.0,30.0,16.0,30.0,23.3,13.0,90,76,62,30.46,30.00,20,9,29,0.00
2013-1-19,49.0,40.9,31.0,39.0,32.3,16.0,81,72,49,30.01,29.79,21,10,39,0.00
2013-1-20,30.0,18.1,13.0,20.0,6.9,4.0,71,62,52,30.31,29.94,18,7,32,0.00
2013-1-21,15.0,9.3,4.0,8.0,0.6,-5.0,86,67,52,30.29,30.15,15,8,23,0.00
2013-1-22,11.0,6.1,-2.0,0.0,-3.3,-8.0,79,65,51,30.40,30.29,9,5,16,0.00
2013-1-23,21.0,15.7,11.0,13.0,6.5,0.0,86,66,58,30.36,30.13,15,5,28,0.00
2013-1-24,22.0,14.6,7.0,9.0,3.6,-2.0,77,62,39,30.63,30.32,12,6,20,0.00
2013-1-25,29.0,22.5,18.0,21.0,16.2,9.0,89,77,65,30.40,30.01,11,5,20,0.00
2013-1-26,30.0,20.6,10.0,19.0,11.2,6.0,85,69,45,30.41,30.18,8,3,12,0.00
2013-1-27,36.0,29.9,23.0,35.0,25.2,18.0,97,83,70,30.40,29.96,12,6,21,0.05
2013-1-28,51.0,45.4,36.0,51.0,44.4,35.0,99,97,94,29.98,29.86,13,6,28,0.12
2013-1-29,61.0,56.7,50.0,59.0,55.6,50.0,99,96,93,29.86,29.45,16,9,27,0.98
2013-1-30,52.0,37.4,21.0,51.0,35.7,16.0,99,94,82,29.65,29.24,14,7,27,1.34
2013-1-31,21.0,12.4,5.0,16.0,7.4,0.0,87,80,74,30.18,29.65,15,11,25,0.02
2013-2-1,17.0,8.2,0.0,14.0,2.7,-4.0,89,78,67,30.39,30.18,10,6,19,0.00
2013-2-2,26.0,17.9,6.0,23.0,14.9,2.0,94,88,78,30.22,30.02,9,5,16,0.00
2013-2-3,23.0,16.6,8.0,19.0,12.2,4.0,92,83,72,30.09,29.98,14,4,19,0.00
2013-2-4,29.0,24.5,19.0,25.0,21.7,16.0,94,89,80,30.07,29.85,8,4,10,0.00
2013-2-5,32.0,24.5,13.0,29.0,21.9,11.0,94,89,80,30.09,29.82,13,5,19,0.00
2013-2-6,39.0,32.1,21.0,30.0,26.1,18.0,87,78,66,30.26,30.09,8,4,16,0.02
2013-2-7,43.0,34.3,31.0,38.0,32.1,28.0,98,92,79,30.16,29.86,10,4,17,0.44
2013-2-8,33.0,28.0,26.0,32.0,25.1,22.0,95,89,79,30.41,29.94,15,7,25,0.44
2013-2-9,36.0,30.6,27.0,30.0,25.7,21.0,87,81,76,30.41,30.12,10,4,20,0.00
2013-2-10,49.0,40.0,33.0,47.0,37.4,27.0,96,91,79,30.12,29.55,16,9,30,0.22
2013-2-11,45.0,34.0,29.0,41.0,27.3,23.0,86,76,71,30.06,29.59,17,11,32,0.01
2013-2-12,29.0,26.4,21.0,25.0,22.3,19.0,94,84,79,30.14,29.96,11,4,20,0.00
2013-2-13,45.0,33.0,22.0,34.0,28.6,20.0,96,85,65,29.96,29.75,10,3,15,0.00
2013-2-14,34.0,34.0,34.0,31.0,31.0,31.0,90,90,90,29.79,29.79,2,2,5,0.00
2013-2-15,24.0,22.8,21.0,16.0,14.2,12.0,72,70,66,30.18,30.18,10,8,16,0.00
2013-2-16,21.0,16.8,11.0,12.0,7.6,4.0,77,67,53,30.21,30.13,10,6,17,0.00
2013-2-17,31.0,19.6,7.0,18.0,7.7,2.0,84,61,36,30.23,30.05,9,3,15,0.00
2013-2-18,53.0,39.7,27.0,45.0,32.5,18.0,94,76,62,30.05,29.47,19,12,39,0.22
2013-2-19,30.0,16.3,10.0,28.0,11.6,5.0,91,81,75,30.20,29.61,17,12,31,0.22
2013-2-20,24.0,17.6,7.0,15.0,10.6,2.0,84,74,63,30.36,30.20,9,5,14,0.00
2013-2-21,29.0,24.9,20.0,24.0,19.6,14.0,94,80,76,30.38,29.99,13,6,24,0.00
2013-2-22,34.0,27.6,23.0,33.0,25.4,22.0,97,91,81,29.99,29.84,10,6,15,0.00
2013-2-23,28.0,25.1,18.0,24.0,20.6,16.0,91,83,71,29.99,29.95,8,4,14,0.00
2013-2-24,38.0,25.2,14.0,25.0,19.0,12.0,94,79,53,30.17,29.99,4,1,7,0.05
2013-2-25,43.0,34.0,23.0,30.0,26.6,20.0,90,75,58,30.20,29.98,8,4,14,0.01
2013-2-26,36.0,32.9,32.0,32.0,29.4,24.0,98,87,65,29.98,29.51,16,9,24,0.24
2013-2-27,34.0,32.5,32.0,33.0,31.6,31.0,98,96,92,29.71,29.52,10,4,15,0.17
2013-2-28,36.0,32.6,29.0,32.0,29.4,24.0,97,88,77,30.07,29.71,13,9,20,0.07
2013-3-1,30.0,27.5,26.0,27.0,24.5,23.0,93,88,81,30.18,30.05,14,8,18,0.01
2013-3-2,32.0,26.4,17.0,23.0,20.2,13.0,90,78,61,30.20,30.14,11,6,15,0.00
2013-3-3,34.0,23.1,12.0,18.0,13.6,10.0,92,69,41,30.18,30.09,5,2,10,0.00
2013-3-4,34.0,27.9,19.0,28.0,21.7,15.0,86,77,65,30.15,30.01,9,4,13,0.00
2013-3-5,33.0,31.3,28.0,31.0,29.7,27.0,98,94,86,30.01,29.79,11,6,17,0.00
2013-3-6,34.0,30.0,28.0,29.0,27.2,25.0,97,89,83,30.33,29.96,13,7,21,0.03
2013-3-7,38.0,31.8,22.0,28.0,25.2,19.0,92,78,58,30.44,30.31,4,2,7,0.06
2013-3-8,39.0,30.7,19.0,27.0,24.5,18.0,96,79,62,30.51,30.33,7,3,11,0.03
2013-3-9,42.0,36.7,29.0,36.0,31.0,24.0,88,80,73,30.34,29.88,12,7,21,0.01
2013-3-10,54.0,46.1,39.0,50.0,43.1,35.0,96,89,74,29.91,29.63,16,5,26,0.97
2013-3-11,48.0,39.0,32.0,47.0,37.8,30.0,98,96,91,29.84,29.60,11,6,18,0.19
2013-3-12,38.0,31.9,27.0,31.0,27.0,22.0,96,82,66,30.05,29.84,11,8,23,0.01
2013-3-13,33.0,27.5,23.0,23.0,18.8,15.0,87,70,49,30.35,30.05,13,7,21,0.00
2013-3-14,35.0,28.6,21.0,31.0,24.8,17.0,95,86,64,30.36,30.11,7,3,11,0.00
2013-3-15,44.0,34.9,30.0,40.0,32.5,28.0,96,91,82,30.11,29.89,6,3,11,0.03
2013-4-27,73.0,67.9,64.0,59.0,56.6,55.0,78,67,55,30.66,30.64,3,1,7,0.00
2013-4-28,78.0,73.3,68.0,67.0,64.7,62.0,95,76,61,30.59,30.56,7,4,13,0.00
2013-5-1,70.0,67.4,64.0,63.0,61.2,60.0,91,80,71,30.58,30.13,6,3,12,0.03
2013-5-2,73.0,67.2,64.0,66.0,64.0,60.0,96,90,77,30.18,30.06,8,3,15,0.27
2013-5-3,71.0,64.7,60.0,64.0,60.5,56.0,92,86,76,30.07,29.96,7,4,17,0.05
2013-5-4,70.0,63.0,58.0,64.0,60.1,56.0,96,90,74,29.96,29.84,9,4,20,0.49
2013-5-5,75.0,66.1,57.0,67.0,61.8,54.0,97,88,50,29.86,29.77,6,2,13,2.35
2013-5-16,85.0,32.4,82.0,-99.9,-99.9,-99.9,71,55,50,30.09,30.02,5,2,7,0.00
2013-5-17,89.0,58.2,86.0,-99.9,-99.9,-99.9,49,46,43,30.10,30.06,3,2,6,0.00
2013-5-20,74.0,73.5,73.0,72.0,71.5,71.0,95,94,91,30.07,30.04,2,1,4,0.03
2013-5-21,85.0,77.3,68.0,74.0,70.9,67.0,99,82,65,30.07,29.98,6,2,11,0.01
2013-5-22,84.0,73.3,64.0,72.0,68.5,63.0,99,86,58,30.02,29.92,3,1,8,0.01
2013-5-23,88.0,77.9,68.0,71.0,67.8,64.0,98,74,47,29.97,29.86,6,2,11,0.01
2013-5-24,86.0,76.2,61.0,65.0,58.3,52.0,90,57,33,30.17,29.91,9,3,17,0.00
2013-5-25,80.0,64.9,50.0,55.0,48.5,39.0,93,61,30,30.32,30.16,5,1,9,0.00
2013-5-26,84.0,69.7,52.0,62.0,57.6,51.0,98,68,40,30.27,30.16,5,1,7,0.00
2013-5-27,86.0,70.0,58.0,67.0,61.8,57.0,98,78,46,30.25,30.16,5,1,10,0.00
2013-5-28,85.0,72.1,61.0,71.0,64.0,60.0,98,78,49,30.24,30.18,5,1,14,0.00
2013-5-29,84.0,76.6,62.0,71.0,66.6,61.0,98,73,53,30.24,30.17,6,2,11,0.00
2013-5-30,86.0,75.0,64.0,74.0,67.8,63.0,98,80,53,30.24,30.16,6,2,13,0.00
2013-5-31,85.0,75.7,67.0,75.0,70.0,66.0,98,84,62,30.21,30.13,6,2,12,0.00
2013-6-1,87.0,76.2,65.0,74.0,68.8,64.0,98,80,56,30.15,30.07,7,2,12,0.00
2013-6-2,85.0,75.9,67.0,77.0,70.1,-99.9,98,87,68,30.11,29.93,5,1,11,0.65
2013-6-3,90.0,80.6,74.0,77.0,73.6,70.0,97,81,55,29.96,29.85,6,2,13,0.01
2013-6-4,91.0,78.3,73.0,77.0,74.0,71.0,98,88,61,30.03,29.92,5,1,13,0.03
2013-6-5,82.0,76.4,72.0,78.0,74.6,71.0,98,94,82,30.04,29.93,5,1,11,1.97
2013-6-7,88.0,82.0,75.0,75.0,73.4,72.0,94,76,61,29.88,29.76,7,4,17,1.39
2013-6-8,90.0,80.8,72.0,78.0,73.8,71.0,97,81,58,30.09,29.87,6,2,14,0.05
2013-6-9,89.0,81.8,75.0,78.0,75.4,72.0,96,82,69,30.12,30.03,6,2,14,0.01
2013-6-10,89.0,78.7,70.0,79.0,74.4,69.0,98,88,65,30.10,29.95,10,2,18,1.17
2013-6-11,92.0,80.5,71.0,77.0,73.0,70.0,99,80,54,30.06,29.94,6,2,11,0.85
2013-6-12,96.0,85.0,75.0,79.0,74.5,72.0,94,73,48,30.01,29.91,5,2,12,0.01
2013-6-13,96.0,86.5,76.0,78.0,74.9,72.0,95,71,47,29.95,29.76,8,3,17,0.00
2013-6-14,89.0,81.8,69.0,76.0,68.2,61.0,91,66,41,29.99,29.73,6,2,13,0.00
2013-6-15,86.0,75.5,65.0,73.0,65.7,60.0,98,74,48,30.12,29.99,6,1,12,0.00
2013-6-16,88.0,74.7,64.0,72.0,66.0,63.0,98,77,48,30.17,30.06,4,1,9,0.00
2013-6-17,93.0,77.2,66.0,77.0,71.3,65.0,98,84,51,30.09,29.96,6,1,14,0.20
2013-6-18,91.0,80.3,71.0,77.0,73.8,70.0,99,82,56,30.00,29.87,8,2,14,0.20
2013-6-19,89.0,79.4,72.0,76.0,73.3,71.0,97,82,61,30.04,29.91,6,2,11,2.51
2013-6-20,83.0,74.3,71.0,76.0,71.3,70.0,98,92,72,30.13,30.02,4,1,8,2.64
2013-6-22,85.0,79.8,74.0,76.0,74.1,72.0,96,84,70,30.16,30.10,4,1,10,0.09
2013-6-23,87.0,78.3,72.0,78.0,73.8,71.0,98,87,64,30.18,30.10,4,1,10,0.04
2013-6-24,90.0,76.4,71.0,77.0,73.4,70.0,99,92,58,30.21,30.13,8,1,17,0.01
2013-6-25,90.0,77.2,72.0,76.0,72.1,69.0,98,86,58,30.16,30.07,6,1,15,0.08
2013-6-26,91.0,78.6,70.0,76.0,72.9,69.0,99,84,57,30.10,29.98,5,2,11,0.02
2013-6-27,93.0,79.9,75.0,77.0,73.2,68.0,95,81,59,29.99,29.82,6,2,12,0.01
2013-6-28,95.0,80.9,75.0,79.0,73.1,70.0,93,78,56,29.86,29.68,9,4,19,0.00
2013-6-29,88.0,79.4,73.0,78.0,73.8,71.0,96,84,61,29.78,29.70,7,2,15,0.14
2013-6-30,91.0,79.3,74.0,78.0,74.8,72.0,98,87,57,29.84,29.74,6,2,12,0.23
2013-7-1,87.0,77.2,73.0,77.0,74.4,71.0,97,91,69,29.98,29.81,5,2,12,1.20
2013-7-2,81.0,76.0,73.0,77.0,74.3,72.0,98,95,87,30.12,30.00,4,1,11,0.52
2013-7-3,87.0,77.7,72.0,79.0,75.3,71.0,99,93,71,30.18,30.11,6,1,18,0.64
2013-7-4,87.0,81.7,76.0,78.0,76.3,75.0,98,84,70,30.20,30.14,9,2,17,0.28
2013-7-5,88.0,79.8,75.0,80.0,76.2,74.0,98,89,69,30.20,30.14,5,1,15,0.33
2013-7-6,87.0,78.4,73.0,79.0,74.8,72.0,99,90,68,30.19,30.12,6,1,14,0.46
2013-7-7,89.0,80.7,74.0,78.0,74.5,72.0,99,83,64,30.18,30.10,7,1,11,0.01
2013-7-8,90.0,76.5,71.0,77.0,71.0,-99.9,99,88,61,30.19,30.12,6,1,10,0.00
2013-7-9,92.0,79.3,71.0,77.0,73.3,70.0,99,84,58,30.19,30.09,3,1,10,0.00
2013-7-10,90.0,77.4,73.0,80.0,69.5,-99.9,98,83,57,30.13,29.97,4,1,8,0.30
2013-7-11,91.0,80.2,74.0,78.0,75.2,73.0,97,86,59,30.01,29.87,6,2,13,2.72
2013-7-12,80.0,75.7,74.0,77.0,74.4,73.0,99,96,90,29.95,29.88,3,0,5,2.34
2013-7-13,82.0,76.8,73.0,80.0,74.9,72.0,99,95,83,30.03,29.93,4,1,8,0.52
2013-7-14,83.0,76.1,73.0,78.0,74.6,72.0,99,95,81,30.19,30.03,7,1,19,1.35
2013-7-15,88.0,77.5,73.0,79.0,75.0,72.0,99,92,69,30.22,30.16,8,1,14,0.02
2013-7-16,90.0,79.3,73.0,79.0,74.3,72.0,99,87,62,30.26,30.20,4,1,12,0.01
2013-7-17,92.0,78.7,71.0,78.0,73.3,70.0,99,86,58,30.24,30.10,4,0,14,0.02
2013-7-18,92.0,78.3,70.0,77.0,72.6,69.0,99,85,59,30.16,30.06,3,0,9,0.03
2013-7-19,86.0,76.7,72.0,79.0,73.6,71.0,98,91,73,30.11,30.01,4,1,9,0.29
2013-7-20,88.0,78.3,73.0,77.0,73.9,72.0,97,87,64,30.09,29.98,7,2,17,0.13
2013-7-21,88.0,77.4,72.0,79.0,73.9,71.0,98,90,73,30.07,29.96,7,2,15,0.15
2013-7-22,86.0,75.9,74.0,77.0,73.8,73.0,98,94,68,30.04,29.95,7,2,18,0.02
2013-7-23,90.0,81.9,75.0,77.0,74.7,73.0,94,80,61,29.96,29.83,9,4,13,0.01
2013-7-24,84.0,77.5,73.0,77.0,73.5,71.0,96,88,77,29.86,29.78,6,2,12,0.00
2013-7-25,93.0,76.6,71.0,78.0,72.4,70.0,98,88,57,29.96,29.79,5,1,10,0.00
2013-7-26,87.0,76.9,71.0,81.0,74.2,70.0,99,92,72,30.05,29.96,3,0,7,0.23
2013-7-27,90.0,80.5,73.0,79.0,75.8,72.0,99,87,62,30.03,29.90,5,1,10,0.14
2013-7-28,91.0,79.7,74.0,79.0,75.3,73.0,99,88,61,30.03,29.93,4,0,6,0.13
2013-7-29,91.0,79.4,73.0,78.0,75.2,72.0,98,88,60,30.12,30.01,4,1,9,0.00
2013-7-30,94.0,79.9,72.0,80.0,75.4,71.0,98,88,57,30.17,30.08,4,1,6,0.05
2013-7-31,90.0,77.4,73.0,78.0,74.3,71.0,98,91,65,30.13,30.03,5,1,8,2.13
2013-8-1,88.0,77.7,73.0,77.0,73.9,72.0,98,89,69,30.03,29.94,3,1,10,2.00
2013-8-2,92.0,79.0,73.0,80.0,75.2,72.0,97,89,60,30.04,29.94,4,1,8,0.32
2013-8-3,93.0,84.0,73.0,81.0,77.3,73.0,99,82,59,30.04,29.94,3,0,10,0.32
2013-8-4,93.0,83.3,76.0,81.0,77.3,74.0,98,84,58,30.00,29.90,6,1,9,0.00
2013-8-5,87.0,79.7,74.0,78.0,73.5,69.0,98,83,62,30.03,29.95,6,2,15,0.00
2013-8-6,90.0,79.1,72.0,76.0,72.7,71.0,98,82,55,30.03,29.94,6,1,10,0.00
2013-8-18,88.0,76.9,71.0,80.0,71.9,-99.9,99,89,70,30.17,30.09,4,1,8,0.31
2013-8-19,89.0,71.6,73.0,80.0,54.0,-99.9,99,89,65,30.14,30.01,5,1,9,0.35
2013-8-20,90.0,77.3,73.0,80.0,71.9,-99.9,99,90,64,30.15,30.05,5,1,11,0.01
2013-8-21,88.0,77.9,73.0,79.0,75.5,72.0,99,93,71,30.20,30.11,2,0,5,0.20
2013-8-22,90.0,79.8,72.0,77.0,74.4,71.0,99,85,61,30.16,30.03,3,1,7,0.07
2013-8-23,90.0,80.1,71.0,78.0,73.8,70.0,99,83,55,30.06,29.98,4,1,7,0.05
2013-8-24,81.0,76.9,73.0,75.0,73.9,72.0,97,91,81,30.20,30.02,4,1,8,0.00
2013-8-25,85.0,75.9,69.0,72.0,63.0,-99.9,96,69,45,30.29,30.20,7,2,11,0.00
2013-8-26,84.0,75.5,66.0,73.0,68.9,63.0,95,81,65,30.26,30.12,5,1,10,0.00
2013-8-27,88.0,75.4,68.0,74.0,68.6,64.0,99,83,45,30.14,30.03,3,1,6,0.00
2013-10-1,66.0,62.6,59.0,63.0,61.0,58.0,97,94,90,30.12,30.07,0,0,0,0.00
2013-10-2,85.0,69.5,57.0,67.0,61.7,56.0,98,80,46,30.14,30.06,4,1,7,0.01
2013-10-3,84.0,70.8,59.0,72.0,65.8,58.0,98,86,63,30.14,30.06,4,1,9,0.01
2013-10-4,87.0,74.8,64.0,73.0,68.6,63.0,99,83,55,30.14,30.05,3,0,6,0.01
2013-10-5,86.0,73.1,63.0,73.0,67.0,62.0,99,84,54,30.12,30.03,3,0,6,0.01
2013-10-6,89.0,75.2,65.0,77.0,70.6,64.0,99,87,56,30.05,29.90,4,1,9,0.01
2013-10-7,87.0,76.0,70.0,78.0,72.8,68.0,99,91,66,29.90,29.78,3,1,13,0.51
2013-10-8,72.0,65.9,60.0,71.0,63.3,57.0,98,92,84,30.08,29.84,4,1,15,1.34
2013-10-9,78.0,66.0,58.0,66.0,60.6,56.0,96,84,63,30.11,30.03,4,1,12,0.01
2013-10-10,79.0,64.7,55.0,62.0,58.7,54.0,98,83,53,30.09,29.96,6,1,12,0.00
2013-10-18,84.0,73.4,66.0,73.0,69.6,65.0,99,89,64,29.98,29.90,4,0,9,0.01
2013-10-19,83.0,72.7,67.0,72.0,68.9,62.0,99,89,69,29.96,29.86,7,1,11,0.01
2013-10-20,75.0,65.2,60.0,63.0,58.1,-99.9,97,81,64,30.05,29.93,3,1,9,0.01
2013-10-21,72.0,64.5,60.0,64.0,60.7,58.0,97,88,70,30.10,30.01,3,0,7,0.00
2013-10-22,68.0,64.0,61.0,65.0,62.4,60.0,98,94,86,30.03,29.87,2,0,4,0.18
2013-10-23,73.0,64.3,53.0,62.0,54.6,42.0,98,75,36,30.04,29.80,8,3,18,0.01
2013-10-24,68.0,53.3,41.0,52.0,43.1,39.0,95,71,41,30.21,30.05,5,1,9,0.01
2013-10-25,64.0,53.6,41.0,49.0,44.2,39.0,97,74,42,30.34,30.17,6,1,11,0.00
2013-10-26,66.0,48.2,36.0,49.0,40.9,35.0,98,80,41,30.33,30.16,4,1,8,0.01
2013-10-27,75.0,53.5,39.0,58.0,45.7,-99.9,99,81,48,30.17,30.08,4,0,7,0.01
2013-10-28,76.0,61.0,53.0,62.0,54.7,-99.9,98,85,55,30.26,30.13,3,0,7,0.00
2013-10-29,79.0,62.3,50.0,63.0,55.7,49.0,99,83,46,30.33,30.23,3,0,6,0.01
2013-10-30,80.0,62.5,51.0,65.0,56.3,50.0,99,84,46,30.33,30.18,3,0,6,0.01
2013-11-23,73.0,63.8,59.0,68.0,60.1,-99.9,99,91,83,30.16,30.01,3,1,9,0.01
2013-11-24,60.0,45.9,31.0,56.0,30.1,18.0,89,57,28,30.50,30.11,6,2,19,0.01
2013-11-25,52.0,41.9,29.0,46.0,32.1,16.0,93,69,49,30.49,30.22,3,1,9,0.00
2013-11-26,70.0,59.9,46.0,69.0,58.9,45.0,99,96,94,30.20,29.62,8,2,19,2.17
2013-11-27,71.0,51.7,37.0,69.0,47.4,31.0,97,85,70,30.23,29.53,6,3,17,0.06
2013-11-28,50.0,36.5,28.0,34.0,29.3,26.0,96,78,43,30.50,30.24,3,1,7,0.03
2013-11-29,58.0,40.8,31.0,37.0,32.8,30.0,98,78,41,30.53,30.45,3,1,10,0.00